EW7112 Weather Reports


time (UTC)temp
C
wind
direction
speed
KPH
gust
KPH
rain 1hr
cm
rain 24hr
cm
rain mn
cm
humidity
%
barometer
mb
20260503001520 23 283 1.6 6.4 0.00 0.00 0.00 40 997.0
20260503000019 23 328 1.6 6.4 0.00 0.00 0.00 39 997.1
20260502234526 24 225 3.2 8.0 0.00 0.00 0.00 38 997.1
20260502233015 24 263 0.0 8.0 0.00 0.00 0.00 38 997.2
20260502231512 24 212 1.6 8.0 0.00 0.00 0.00 38 997.3
20260502230019 24 306 0.0 6.4 0.00 0.00 0.00 37 997.4
20260502224509 24 325 3.2 9.7 0.00 0.00 0.00 37 997.4
20260502223006 25 182 1.6 6.4 0.00 0.00 0.00 37 997.4
20260502221505 23 273 0.0 4.8 0.00 0.00 0.00 37 997.6
20260502220002 24 240 3.2 9.7 0.00 0.00 0.00 36 997.7
20260502214500 25 178 3.2 9.7 0.00 0.00 0.00 38 997.8
20260502213101 24 327 1.6 8.0 0.00 0.00 0.00 36 997.9
20260502211559 24 243 3.2 11.3 0.00 0.00 0.00 35 998.2
20260502210115 25 326 6.4 17.7 0.00 0.00 0.00 33 998.3
20260502204558 24 168 3.2 11.3 0.00 0.00 0.00 32 998.7
20260502203056 23 15 4.8 14.5 0.00 0.00 0.00 34 998.7
20260502201556 24 307 1.6 8.0 0.00 0.00 0.00 32 998.8
20260502200054 23 22 1.6 12.9 0.00 0.00 0.00 32 999.2
20260502194554 24 32 1.6 8.0 0.00 0.00 0.00 34 999.2
20260502193057 23 230 3.2 9.7 0.00 0.00 0.00 34 999.4
20260502191558 23 102 3.2 8.0 0.00 0.00 0.00 34 999.5
20260502190106 23 7 3.2 9.7 0.00 0.00 0.00 34 999.7
20260502184558 23 264 3.2 9.7 0.00 0.00 0.00 33 999.8
20260502183103 23 16 3.2 8.0 0.00 0.00 0.00 34 1000.2
20260502181547 22 264 1.6 6.4 0.00 0.00 0.00 34 1000.4
20260502163028 21 63 1.6 6.4 0.00 0.00 0.00 37 1001.3
20260502161526 20 259 1.6 6.4 0.00 0.00 0.00 38 1001.3
20260502151514 18 52 1.6 6.4 0.00 0.00 0.00 43 1001.0
20260502123037 11 307 0.0 3.2 0.00 0.00 0.00 85 999.7
20260502121544 11 308 0.0 3.2 0.00 0.00 0.00 85 999.5
20260502114527 11 308 0.0 0.0 0.00 0.00 0.00 84 999.1
20260502113024 11 308 0.0 0.0 0.00 0.00 0.00 84 998.8
20260502111527 11 308 0.0 1.6 0.00 0.00 0.00 84 998.5
20260502110020 11 308 0.0 1.6 0.00 0.00 0.00 84 998.4
20260502104518 11 302 0.0 4.8 0.00 0.00 0.00 84 998.3
20260502103017 11 298 0.0 3.2 0.00 0.00 0.00 83 998.3
20260502101517 11 283 1.6 4.8 0.00 0.00 0.00 82 998.1
20260502091509 12 288 1.6 6.4 0.00 0.00 0.00 82 997.8
20260502070117 11 259 0.0 0.0 0.00 0.00 0.00 84 998.0
20260502064557 12 259 0.0 0.0 0.00 0.00 0.00 84 998.1
20260502063057 12 259 0.0 0.0 0.00 0.00 0.00 83 998.1
20260502061554 12 259 0.0 1.6 0.00 0.00 0.00 81 998.1
20260502060053 13 259 0.0 1.6 0.00 0.00 0.00 81 998.0
20260502054553 13 238 0.0 1.6 0.00 0.00 0.00 82 997.9
20260502053102 12 92 0.0 0.0 0.00 0.00 0.00 84 997.8
20260502051603 12 92 0.0 0.0 0.00 0.00 0.00 83 998.1
20260502050046 13 92 0.0 0.0 0.00 0.00 0.00 82 998.0
20260502044545 13 92 0.0 0.0 0.00 0.00 0.00 83 998.0
20260502043043 13 92 0.0 0.0 0.00 0.00 0.00 82 997.9
20260502041601 13 92 0.0 0.0 0.00 0.00 0.00 81 997.8
20260502040042 13 92 0.0 0.0 0.00 0.00 0.00 81 997.9
20260502034535 14 92 0.0 0.0 0.00 0.00 0.00 81 997.6
20260502033045 14 92 0.0 0.0 0.00 0.00 0.00 79 997.6
20260502031533 15 92 0.0 0.0 0.00 0.00 0.00 78 997.5
20260502030032 15 92 0.0 0.0 0.00 0.00 0.00 77 997.4
20260502024529 15 92 0.0 0.0 0.00 0.00 0.00 71 997.2
20260502023029 16 92 0.0 0.0 0.00 0.00 0.00 65 997.1
20260502021527 16 92 0.0 1.6 0.00 0.00 0.00 63 997.0
20260502020025 16 92 0.0 4.8 0.00 0.00 0.00 62 996.5
20260502014528 16 277 0.0 1.6 0.00 0.00 0.00 63 996.2
20260502013023 17 277 0.0 1.6 0.00 0.00 0.00 62 995.9
20260502011523 17 100 0.0 1.6 0.00 0.00 0.00 62 995.4
20260502010024 17 100 0.0 1.6 0.00 0.00 0.00 60 995.3
20260502004522 17 100 0.0 1.6 0.00 0.00 0.00 60 995.2
20260502003021 17 100 0.0 3.2 0.00 0.00 0.00 58 995.0